#timestamp,LO_Frequency,Hit,StdDev 
1595347215.0,286046998.1,N
1595347216.0,286046998.1,N
1595347235.8,286047001.0,N
1595347255.6,286047000.4,N
1595347275.5,286047000.7,N
1595347295.3,286046998.2,N
1595347315.1,286046998.1,N
1595347335.9,286047002.5,N
1595347355.7,286047002.1,N
1595347375.6,286047001.3,N
1595347395.4,286047001.4,N
1595347415.2,286047001.4,N
1595347435.1,286047003.4,N
1595347436.0,286047003.4,N
1595347455.8,286047004.0,N
1595347475.6,286047002.6,N
1595347495.5,286047000.1,N
1595347515.3,286047002.2,N
1595347535.2,286047002.1,N
1595347555.9,286047001.4,N
1595347575.7,286047001.7,N
1595347595.6,286047002.0,N
1595347615.4,286047002.8,N
1595347635.2,286047002.8,N
1595347655.1,286047000.2,N
1595347656.0,286047000.2,N
1595347675.8,286047000.3,N
1595347695.7,286046999.9,N
1595347715.5,286046999.8,N
1595347735.3,286047000.1,N
1595347755.2,286047000.3,N
1595347775.0,286047000.0,N
1595347775.9,286047000.0,N
1595347795.7,286047000.7,N
1595347815.6,286046999.9,N
1595347835.4,286047000.9,N
1595347855.3,286046999.7,N
1595347875.1,286047002.4,N
1595347876.0,286047002.4,N
1595347895.8,286047002.3,N
1595347915.7,286047002.0,N
1595347935.5,286047002.2,N
1595347955.3,286047001.5,N
1595347975.2,286047002.2,N
1595347995.0,286047001.9,N
1595347995.9,286047001.9,N
1595348015.8,286047002.0,N
1595348035.6,286047002.3,N
1595348055.4,286047001.6,N
1595348075.3,286047001.3,N
1595348095.1,286047004.0,Y
1595348115.9,286047001.9,P
1595348135.7,286047001.9,P
1595348155.5,286047002.3,P
1595348175.4,286047002.4,Y
1595348195.2,286046998.4,P
1595348215.0,286046998.6,N
1595348215.9,286046998.6,N
1595348235.8,286047001.2,N
1595348255.6,286046999.0,N
1595348275.5,286046998.2,N
1595348295.3,286046998.9,N
1595348315.1,286046999.3,N
1595348335.9,286046999.4,N
1595348355.7,286046998.1,N
1595348375.5,286047000.6,N
1595348395.4,286047000.5,N
1595348415.2,286047000.9,N
1595348435.1,286047000.6,N
1595348436.0,286047000.6,N
1595348455.8,286047000.8,N
1595348475.6,286047000.9,N
1595348495.5,286047001.2,N
1595348515.3,286047001.1,N
1595348535.2,286046998.2,N
1595348555.9,286046998.7,N
1595348575.7,286046998.4,N
1595348595.6,286046998.5,N
1595348615.4,286046998.5,N
1595348635.2,286046998.3,N
1595348655.1,286046998.2,N
1595348656.0,286046998.2,N
1595348675.8,286046999.8,N
1595348695.7,286047002.3,N
1595348715.5,286047002.5,N
1595348735.3,286047002.6,N
1595348755.2,286047002.4,N
1595348775.0,286047002.8,N
1595348775.9,286047002.8,N
1595348795.7,286046999.8,N
1595348815.6,286047000.6,N
1595348835.4,286047001.0,N
1595348855.3,286046998.4,N
1595348875.1,286046999.3,N
1595348876.0,286046999.3,N
1595348895.8,286047000.7,N
1595348915.7,286046998.6,N
1595348935.5,286046999.4,N
1595348955.3,286046999.3,N
1595348975.2,286046999.4,N
1595348995.0,286046998.6,N
1595348995.9,286046998.6,N
1595349015.8,286047000.8,N
1595349035.6,286047000.8,N
1595349055.4,286046998.6,N
1595349075.3,286046996.7,N
1595349095.1,286046999.6,N
1595349115.8,286046998.7,N
1595349135.7,286046998.5,N
1595349155.5,286047001.0,N
1595349175.4,286047001.1,N
1595349195.2,286046999.0,N
1595349215.0,286046999.6,N
1595349215.9,286046999.6,N
1595349235.8,286046999.5,N
1595349255.6,286046996.6,N
1595349275.4,286046996.5,N
1595349295.3,286046996.9,N
1595349315.1,286046999.6,N
1595349335.9,286046999.4,N
1595349355.7,286046996.9,N
1595349375.5,286046999.5,N
1595349395.4,286046999.1,N
1595349415.2,286046998.4,N
1595349435.0,286046998.9,N
1595349436.0,286046998.9,N
1595349455.8,286046997.0,N
1595349475.6,286046996.6,N
1595349495.5,286046999.2,N
1595349515.3,286046997.0,N
1595349535.1,286046998.3,N
1595349555.9,286047000.4,N
1595349575.7,286046999.7,N
1595349595.6,286047002.1,N
1595349615.4,286047000.0,N
1595349635.2,286047000.4,N
1595349655.1,286047000.1,N
1595349656.0,286047000.1,N
1595349675.8,286047000.4,N
1595349695.7,286047000.6,N
1595349715.5,286046998.5,N
1595349735.3,286047000.7,N
1595349755.2,286047000.4,N
1595349775.0,286047000.0,N
1595349775.9,286047000.0,N
1595349795.8,286047000.2,N
1595349815.6,286046999.9,N
1595349835.4,286047000.4,N
1595349855.3,286047000.1,N
1595349875.1,286047002.4,N
1595349895.8,286047002.0,N
1595349915.7,286047002.3,N
1595349935.5,286047001.6,N
1595349955.4,286047001.8,N
1595349975.2,286047001.7,N
1595349995.0,286047001.8,N
1595349995.9,286047001.8,N
1595350015.8,286047002.2,N
1595350035.6,286047002.4,N
1595350055.4,286047002.0,N
1595350075.3,286047002.1,N
1595350095.1,286047002.3,N
1595350115.9,286047002.7,N
1595350135.7,286047000.5,N
1595350155.5,286047000.8,N
1595350175.4,286047001.1,N
1595350195.2,286046998.5,N
1595350215.0,286046998.1,N
1595350215.9,286046998.1,N
1595350235.8,286047001.2,N
1595350255.6,286046998.2,N
1595350275.5,286047001.1,N
1595350295.3,286047000.2,N
1595350315.1,286046999.9,N
1595350335.9,286047000.5,N
1595350355.7,286047000.4,N
1595350375.5,286047000.6,N
1595350395.4,286047000.5,N
1595350415.2,286047000.1,N
1595350435.1,286046999.7,N
1595350436.0,286046999.7,N
1595350455.8,286046999.7,N
1595350475.6,286047002.3,N
1595350495.5,286047002.2,N
1595350515.3,286047001.7,N
1595350535.2,286047001.5,N
1595350555.9,286047002.2,N
1595350575.7,286047001.7,N
1595350595.6,286047001.8,N
1595350615.4,286047001.4,N
1595350635.2,286047004.0,Y
1595350655.1,286047004.0,P
1595350656.0,286047004.0,N
1595350675.8,286047004.0,N
1595350695.7,286047003.5,N
1595350715.5,286047004.3,Y
1595350735.3,286046998.1,P
1595350755.2,286046998.7,N
1595350775.0,286046998.2,N
1595350775.9,286046998.2,N
1595350795.8,286046998.6,N
